Location: Bonneuil
(46.1010°N, 2.9693°E)
Time: 06:25:48
(UTC+00:00)

X-37B - Visible Passes

Search period start: 26 February 2021 00:00
Search period end: 08 March 2021 00:00
Orbit: 383 x 391 km, 45.0° (Epoch: 10 February)

Date Brightness Start Highest point End Pass type
(mag) Time Alt. Az. Time Alt. Az. Time Alt. Az.
26 Feb 3.0 04:07:49 23° E 04:07:49 23° E 04:09:08 10° E visible
26 Feb 1.2 05:40:06 15° W 05:42:29 44° SSW 05:45:31 10° SE visible
27 Feb 0.8 04:44:21 57° S 04:44:21 57° S 04:47:18 10° ESE visible
28 Feb 3.8 03:48:39 13° ESE 03:48:39 13° ESE 03:49:00 10° ESE visible
28 Feb 1.7 05:20:56 21° WSW 05:22:15 30° SSW 05:25:05 10° SE visible
01 Mar 2.3 04:25:18 27° SE 04:25:18 27° SE 04:27:02 10° SE visible
02 Mar 2.3 05:02:03 20° SSW 05:02:03 20° SSW 05:04:22 10° SSE visible
03 Mar 3.7 04:06:36 10° SE 04:06:36 10° SE 04:06:36 10° SE visible
